Regional Weather Roundup
Issued by NWS

Home | Current Version | Previous Version | Text Only | Print | Product List | Glossary Off
Versions: 1 2 3 4 5 6 7 8 9 10 11 12 13 14 15 16 17 18 19 20 21 22 23 24 25 26 27

000
ASUS45 KBOI 251110
RWRID

IDAHO REGIONAL WEATHER ROUNDUP
NATIONAL WEATHER SERVICE BOISE ID
500 AM MDT THU MAY 25 2017

NOTE: "FAIR" INDICATES FEW OR NO CLOUDS BELOW 12000 FEET
WITH NO SIGNIFICANT WEATHER AND/OR OBSTRUCTIONS TO VISIBILITY

IDZ012-014-251200-
SOUTHWEST IDAHO


CITY           SKY/WX    TMP DP  RH WIND       PRES   REMARKS
BOISE          CLEAR     45  31  58 W3        29.74R
CALDWELL       CLEAR     45  35  68 W9        29.76R
MOUNTAIN HOME  CLEAR     44  30  59 W12       29.73S
$$

IDZ016-017-251200-
SOUTHCENTRAL IDAHO


CITY           SKY/WX    TMP DP  RH WIND       PRES   REMARKS
BURLEY         PTCLDY    46  28  49 W16G30    29.69R
JEROME         CLEAR     42  28  57 SW16      29.73R
TWIN FALLS     PTCLDY    41  28  60 S13G23    29.72R
$$

IDZ019>023-251200-
SOUTHEAST IDAHO


CITY           SKY/WX    TMP DP  RH WIND       PRES   REMARKS
IDAHO FALLS    CLEAR     36  26  67 N5        29.71R WCI  32
POCATELLO      PTCLDY    43  27  53 W10       29.73R
REXBURG        PTCLDY    39  21  48 NW5       29.69R
$$

IDZ006-010-011-018-031-032-251200-
CENTRAL IDAHO MOUNTAINS


CITY           SKY/WX    TMP DP  RH WIND       PRES   REMARKS
MCCALL         CLEAR     36  26  67 NW3       29.75R
HAILEY         CLEAR     41  25  52 N8        29.72R
STANLEY          N/A     27  21  78 CALM      29.78R
SALMON         CLOUDY    39  28  65 CALM      29.75R
CHALLIS        CLEAR     35  24  64 W3        29.76R
$$

IDZ002-004-006-007-026-251200-
NORTHERN IDAHO


CITY           SKY/WX    TMP DP  RH WIND       PRES   REMARKS
LEWISTON       MOCLDY    51  37  58 W6        29.77R
LOWELL           N/A     44  39  82 CALM      29.80R
COEUR D`ALENE  CLOUDY    46  40  79 CALM      29.77R
MULLAN PASS    CLOUDY    32  28  85 CALM      29.76R
$$




USA.gov is the U.S. government's official web portal to all federal, state and local government web resources and services.